Regional Weather Roundup
Issued by NWS Little Rock, AR

Home | Current Version | Previous Version | Text Only | Print | Product List | Glossary Off
Versions: 1 2 3 4 5 6 7 8 9 10 11 12 13 14 15 16 17 18 19 20 21 22 23 24 25 26 27 28 29 30 31 32 33 34 35 36 37 38 39 40 41 42 43 44 45 46

000
ASUS44 KLZK 310705
RWRLZK

WEATHER ROUNDUP FOR ARKANSAS
NATIONAL WEATHER SERVICE LITTLE ROCK AR
200 AM CDT MON AUG 31 2015

NOTE: "FAIR" INDICATES FEW OR NO CLOUDS BELOW 12,000 FEET WITH NO
SIGNIFICANT WEATHER AND/OR OBSTRUCTIONS TO VISIBILITY.

ARZ001-003-010-029-310800-
NORTHWEST ARKANSAS

CITY           SKY/WX    TMP DP  RH WIND       PRES   REMARKS
FAYETTEVILLE   CLEAR     68  67  96 CALM      30.00S
FORT SMITH     CLEAR     73  69  87 NE5       29.96S
BENTONVILLE    CLEAR     70  64  83 CALM      30.01R
ROGERS         CLEAR     71  67  87 SE3       30.02R
SILOAM SPGS    CLEAR     72  63  73 CALM      29.98S
HIGHFILL       CLEAR     71  68  90 CALM      30.00S
$$

ARZ004-005-016-310800-
NORTH CENTRAL ARKANSAS

CITY           SKY/WX    TMP DP  RH WIND       PRES   REMARKS
BATESVILLE     CLEAR     72  68  88 NE3       30.01S
FLIPPIN        PTCLDY    72  64  78 CALM      29.99S
MTN HOME       PTCLDY    70  67  90 CALM      30.01R
$$

ARZ040-041-310800-
WEST CENTRAL ARKANSAS

CITY           SKY/WX    TMP DP  RH WIND       PRES   REMARKS
MENA           PTCLDY    70  68  94 CALM      30.02S
MOUNT IDA      PTCLDY    70  68  93 CALM      29.98S FOG
$$

ARZ009-017-025-026-028-310800-
NORTHEAST ARKANSAS

CITY           SKY/WX    TMP DP  RH WIND       PRES   REMARKS
JONESBORO      CLEAR     67  67 100 NE3       30.02S
NEWPORT        CLEAR     71  69  93 SE5       30.02S
WALNUT RIDGE   CLEAR     72  66  83 CALM      30.02S
BLYTHEVILLE    CLEAR     72  70  93 S5        30.03S
$$

ARZ022-023-033-042-044-310800-
CENTRAL ARKANSAS

CITY           SKY/WX    TMP DP  RH WIND       PRES   REMARKS
LITTLE ROCK    PTCLDY    76  69  79 SE6       29.99S
N LITTLE ROCK    N/A     76  71  82 SE6       29.99S
JACKSONVILLE   CLEAR     71  67  88 NE3       29.99S
SEARCY         CLEAR     70  68  93 CALM      30.02S
HOT SPRINGS    PTCLDY    73  66  78 CALM      30.00R
RUSSELLVILLE   CLEAR     73  68  84 SE5       29.98S
$$

ARZ036-310800-
EAST ARKANSAS

CITY           SKY/WX    TMP DP  RH WIND       PRES   REMARKS
WEST MEMPHIS   PTCLDY    72  71  97 SE8       30.01F
$$

ARZ050-053-066-070-073-310800-
SOUTHWEST ARKANSAS

CITY           SKY/WX    TMP DP  RH WIND       PRES   REMARKS
ARKADELPHIA    FAIR      72  71  96 CALM      29.98S
CAMDEN         CLEAR     72  66  83 CALM      29.98R
TEXARKANA      CLEAR     73  67  81 S5        29.99R
EL DORADO      CLEAR     71  67  87 CALM      29.98S
DE QUEEN       PTCLDY    72  69  90 CALM      29.97R
$$

ARZ056-057-069-310800-
SOUTHEAST ARKANSAS

CITY           SKY/WX    TMP DP  RH WIND       PRES   REMARKS
PINE BLUFF     CLEAR     72  68  87 SE3       29.99S
STUTTGART      CLEAR     73  66  78 SE7       30.00R
MONTICELLO     CLEAR     75  69  81 CALM      29.98F

$$





USA.gov is the U.S. government's official web portal to all federal, state and local government web resources and services.